Regional Weather Roundup
Issued by NWS Jackson, KY

Home | Current Version | Previous Version | Graphics & Text | Print | Product List | Glossary On
Versions: 1 2 3 4 5 6 7 8 9 10 11 12 13 14 15 16 17 18 19 20 21 22 23 24 25 26 27 28 29 30 31 32 33 34 35 36 37 38 39 40 41 42 43 44 45 46 47 48 49 50
000
ASUS43 KJKL 211010
RWRJKL

EAST KENTUCKY HOURLY WEATHER ROUNDUP
NATIONAL WEATHER SERVICE JACKSON KY
600 AM EDT TUE OCT 21 2014

NOTE: "FAIR" INDICATES FEW OR NO CLOUDS BELOW 12,000 FEET WITH
NO SIGNIFICANT WEATHER AND/OR OBSTRUCTIONS TO VISIBILITY.

* THESE REPORTS ARE NOT UNDER NWS QUALITY CONTROL AND MAY NOT
  REPORT WEATHER SUCH AS PRECIPITATION AND FOG.

KYZ079-080-083-085-087-088-110-112-115-119-120-211100
...EASTERN KENTUCKY...

CITY           SKY/WX    TMP DP  RH WIND       PRES   REMARKS
JACKSON        CLEAR     49  46  90 VRB3      29.94S
LONDON         CLEAR     46  42  86 CALM      29.97R
SOMERSET*      FOG       43  43 100 CALM      29.98F VSB 1/2
MONTICELLO*    CLEAR     42  41  97 CALM      30.00S FOG
WILLIAMSBURG*  CLEAR     48  48 100 CALM      29.98S
MIDDLESBORO*   CLEAR     46  45  99 CALM      29.98S
HARLAN APT*    CLOUDY    50  50 100 N6        29.97S
BLACK MTN*       N/A     45  45 100 SW3         N/A
PIKEVILLE APT* PTCLDY    50  46  87 S3        29.94R
BIG SANDY*     PTSUNNY   51  49  90 SW5       29.93S
MOREHEAD APT*  PTSUNNY   50  48  93 W5        29.95R
$$

KYZ035-036-041-042-044-050-067-078-099-211100
...CENTRAL KENTUCKY...

CITY           SKY/WX    TMP DP  RH WIND       PRES   REMARKS
MT STERLING*   CLOUDY    50  50 100 NW6       29.95S
FLEMING/MASON* MOCLDY    48  48 100 W6        29.94S
DANVILLE*      CLOUDY    52  46  82 NW5       29.98R
RICHMOND*      CLOUDY    50  46  87 W5        29.95S
LEXINGTON      MOCLDY    53  48  83 W6        29.96R
FRANKFORT      MOCLDY    50  46  86 NW6       29.96R
$$

KYZ091>093-OHZ055-061-077-WVZ005-015-034-035-042-211100
...SOUTHERN OHIO/WEST VIRGINIA...

CITY           SKY/WX    TMP DP  RH WIND       PRES   REMARKS
COVINGTON      MOCLDY    50  46  86 NW8       29.95R
COLUMBUS       CLOUDY    50  48  93 NW5       29.89S FOG
DAYTON         CLOUDY    50  45  83 NW8       29.94R
WILMINGTON     MOCLDY    50  46  86 NW10      29.92R
HUNTINGTON     CLOUDY    49  48  97 CALM      29.90S
CHARLESTON     CLOUDY    52  50  93 CALM      29.90S
PINEVILLE*     PTCLDY    46  46 100 MISG      29.98S
BECKLEY        PTCLDY    46  44  93 S3        29.93S
BLUEFIELD      PTCLDY    49  44  83 SW3       29.95R
$$

VAZ002-007-008-TNZ017-027-036-066-071-211100
...SOUTHWEST VIRGINIA/EAST TENNESSEE...

CITY           SKY/WX    TMP DP  RH WIND       PRES   REMARKS
WISE*          CLOUDY    50  50 100 SW7       29.97S
JONESVILLE*    CLOUDY    48  48 100 CALM      30.00S
ABINGDON*      RAIN      51  51  99 W3        29.97F
BRISTOL        MOCLDY    49  48  97 CALM      29.97F FOG
KNOXVILLE      PTCLDY    52  48  86 SW8       29.98S
OAK RIDGE      PTCLDY    52  48  86 CALM      30.00S
CROSSVILLE       N/A     50  46  86 SW3       30.01S
NASHVILLE      CLEAR     48  47  96 CALM      30.02R
$$

...KEY TO REMARKS...
VSB - VISIBILITY IN MILES
WCI - WIND CHILL INDEX
HX  - HEAT INDEX

$$



USA.gov is the U.S. government's official web portal to all federal, state and local government web resources and services.